Content
SEND FEEDBACK

Daily
Averages
Monthly
Summary
Uzbekistan

HEYRATAN, UZBEKISTAN


Home > Asia > Uzbekistan
Elevation: 310 meters     Latitude: 37 13N     Longitude: 067 16E

WEATHER
 
SELECT A DAY
Number of Records: 164,749;   Date Range: 3/15/97 - 11/21/14
 
SHARE

PRINT THIS DATA

[ ← Previous Day ]
WEATHER ALMANAC - 31 JANUARY, 2013
[ Next Day → ]
[ °F ]   °C
Weather ElementAverageHighLow
Temperature12.4 °C18 °C (1:30 pm)8 °C (7:00 am)
Dewpoint9.1 °C11 °C (2:00 pm)7 °C (7:00 am)
Humidity81.2 %100 % (4:00 am)52 % (5:00 pm)
Barometer1018.3 hPa1021.3 hPa (11:00 am)1016.3 hPa (1:30 am)
Wind Speed12.9 km/h28.8 km/h (2:30 pm)
Weather ElementAverage
Visibility9.2 km
Wind DirectionENE (69.6 °)

Weather ElementTotal
Precipitation---
Heating Degree Days5.3 (Base 18.3)
Growing Degree Days3 (Base 10)
Averaged from 51 records on 31 January, 2013
WEATHER CONDITIONS BREAKOUT
WIND DIRECTION BREAKOUT
WEATHER BY HOUR - 31 JANUARY, 2013
[ °F ]   °C
Local TimeTemperatureDewpointHumidityBarometerVisibilityWind DirectionWind SpeedGust SpeedPrecipitationEventsConditions
12:30 AM10 °C9 °C94 %1017.3 hPa10 kmSSE (160°)7.2 km/hOvercast
1:00 AM10 °C9 °C94 %1017.3 hPa10 kmESE (110°)7.2 km/hRainLight Rain Showers
1:30 AM10 °C9 °C94 %1016.3 hPa10 kmEast (100°)7.2 km/hRainLight Rain Showers
2:00 AM10 °C9 °C94 %1017.3 hPa10 kmSE (130°)7.2 km/hMostly Cloudy
2:30 AM10 °C9 °C94 %1017.3 hPa10 kmVariable3.5 km/hMostly Cloudy
3:00 AM10 °C9 °C94 %1017.9 hPa10 kmEast (100°)10.8 km/hMostly Cloudy
3:30 AM10 °C9 °C94 %1017.9 hPa6 kmEast (90°)10.8 km/hMostly Cloudy
4:00 AM9 °C9 °C100 %1017.9 hPa6.9 kmESE (110°)10.8 km/hMostly Cloudy
4:30 AM10 °C9 °C94 %1017.9 hPa10 kmESE (110°)10.8 km/hMostly Cloudy
5:00 AM10 °C8.9 °C91 %1019 hPa9.7 kmESE (120°)10.8 km/hPartly Cloudy
5:00 AM10 °C9 °C94 %1017.9 hPa10 kmESE (120°)10.8 km/hMostly Cloudy
5:30 AM10 °C9 °C94 %1017.9 hPa10 kmSE (130°)14.3 km/hMostly Cloudy
6:00 AM9 °C8 °C93 %1019 hPa10 kmSSE (160°)10.8 km/hMostly Cloudy
6:30 AM9 °C8 °C93 %1019 hPa10 kmSSE (160°)7.2 km/hMostly Cloudy
7:00 AM8 °C7 °C93 %1020 hPaNW (320°)3.5 km/hMostly Cloudy
7:30 AM8 °C7 °C93 %1020 hPa2.1 kmENE (60°)7.2 km/hMostly Cloudy
8:00 AM8 °C8 °C100 %1020 hPa2.7 kmEast (90°)3.5 km/hMostly Cloudy
8:30 AM9 °C8 °C93 %1020 hPaENE (60°)7.2 km/hMostly Cloudy
9:00 AM10 °C9 °C94 %1021 hPa5 kmVariable3.5 km/hMostly Cloudy
9:30 AM10 °C9 °C94 %1021 hPa6 kmEast (100°)10.8 km/hMostly Cloudy
10:00 AM12 °C10 °C88 %1021 hPa10 kmEast (90°)7.2 km/hMostly Cloudy
10:30 AM13 °C10 °C82 %1021 hPa10 kmEast (80°)10.8 km/hMostly Cloudy
11:00 AM12.8 °C10 °C77 %1021.3 hPa9.7 kmEast (80°)10.8 km/hMostly Cloudy
11:00 AM14 °C10 °C77 %1021 hPa10 kmEast (80°)10.8 km/hMostly Cloudy
11:30 AM14 °C10 °C77 %1021 hPa10 kmENE (60°)10.8 km/hMostly Cloudy
12:00 PM15 °C10 °C72 %1020 hPa10 kmEast (90°)10.8 km/hMostly Cloudy
12:30 PM16 °C9 °C63 %1020 hPa10 kmENE (60°)10.8 km/hMostly Cloudy
1:00 PM17 °C9 °C59 %1019 hPa10 kmENE (60°)14.3 km/hMostly Cloudy
1:30 PM18 °C10 °C59 %1019 hPa10 kmENE (60°)18 km/hMostly Cloudy
2:00 PM18 °C11 °C64 %1017.9 hPa10 kmNNE (30°)25.3 km/hMostly Cloudy
2:30 PM17 °C11 °C68 %1017.9 hPa10 kmNNE (20°)28.8 km/hMostly Cloudy
3:00 PM17 °C10 °C63 %1017.9 hPa10 kmNNE (30°)28.8 km/hMostly Cloudy
3:30 PM18 °C10 °C59 %1017.9 hPa10 kmNNE (30°)25.3 km/hScattered Clouds
4:00 PM18 °C10 °C59 %1017.3 hPa10 kmNNE (20°)25.3 km/hScattered Clouds
4:30 PM17 °C10 °C63 %1017.3 hPa10 kmNNE (20°)25.3 km/hMostly Cloudy
5:00 PM17.2 °C10 °C52 %1017.3 hPa9.7 kmNE (40°)21.6 km/hMostly Cloudy
5:00 PM17 °C10 °C63 %1017.3 hPa10 kmNNE (30°)21.6 km/hMostly Cloudy
5:30 PM16 °C10 °C68 %1017.3 hPa10 kmNNE (30°)21.6 km/hMostly Cloudy
6:00 PM15 °C10 °C72 %1017.3 hPaNNE (30°)14.3 km/hClear
6:30 PM14 °C9 °C72 %1017.3 hPaNNE (30°)14.3 km/hClear
7:00 PM13 °C9 °C77 %1017.3 hPaNNE (30°)14.3 km/hClear
7:30 PM12 °C9 °C82 %1017.3 hPaNNE (30°)10.8 km/hClear
8:00 PM12 °C9 °C82 %1017.3 hPaNNE (30°)10.8 km/hClear
8:30 PM12 °C9 °C82 %1017.3 hPaNNE (30°)10.8 km/hClear
9:00 PM12 °C9 °C82 %1017.3 hPaNNE (30°)10.8 km/hClear
9:30 PM11 °C8 °C82 %1017.3 hPaNNE (30°)10.8 km/hClear
10:00 PM11 °C8 °C82 %1017.3 hPaNE (40°)14.3 km/hClear
10:30 PM10 °C8 °C87 %1017.3 hPaNE (40°)10.8 km/hClear
11:00 PM10.6 °C7.8 °C79 %1017.3 hPa9.7 kmNNE (30°)14.3 km/hPartly Cloudy
11:00 PM11 °C8 °C82 %1017.3 hPaNNE (30°)14.3 km/hClear
11:30 PM10 °C7 °C82 %1016.3 hPaNNE (30°)10.8 km/hClear
Hourly data recorded from UTST, located 0 kilometers away from Heyratan, Uzbekistan







STORIES FROM OUR PARTNERS